QPF
0.01 0.01 0.01 0.01 0.02 0.02 0.02 0.02 0.02 0.01 0.02 0.02 0.03 0.06 0.07 0.07 0.04 0.03 0.02 0.02 0.01 0.02 0.01 0.01 0.01 0.01 0.01 0.01 0.01 0.01 0.00 0.00 0.00 0.00 0.00 0.01 0.01 0.01 0.01 0.01 0.02 0.02 0.02 0.02
0.01 0.00 0.00 0.01 0.01 0.01 0.01 0.01 0.01 0.01 0.01 0.02 0.04 0.07 0.08 0.06 0.03 0.03 0.02 0.02 0.02 0.02 0.01 0.00 0.01 0.01 0.00 0.01 0.00 0.00 0.00 0.00 0.00 0.00 0.01 0.01 0.01 0.01 0.01 0.01 0.01 0.02 0.03 0.03
0.00 0.01 0.00 0.00 0.01 0.02 0.01 0.01 0.01 0.01 0.01 0.02 0.03 0.08 0.07 0.05 0.03 0.03 0.02 0.02 0.02 0.02 0.01 0.01 0.01 0.01 0.01 0.00 0.00 0.00 0.00 0.00 0.00 0.01 0.01 0.01 0.01 0.01 0.01 0.01 0.01 0.01 0.02 0.04
0.01 0.00 0.00 0.01 0.01 0.02 0.01 0.01 0.01 0.01 0.02 0.03 0.03 0.06 0.07 0.08 0.05 0.04 0.03 0.03 0.03 0.02 0.02 0.01 0.01 0.01 0.01 0.01 0.01 0.02 0.02 0.01 0.01 0.01 0.01 0.01 0.01 0.01 0.01 0.01 0.02 0.03 0.02 0.03
0.01 0.01 0.01 0.01 0.02 0.01 0.02 0.01 0.01 0.01 0.03 0.04 0.03 0.05 0.06 0.08 0.06 0.05 0.02 0.02 0.02 0.02 0.02 0.02 0.02 0.02 0.02 0.02 0.02 0.02 0.02 0.02 0.02 0.02 0.02 0.02 0.02 0.02 0.02 0.02 0.03 0.03 0.03 0.03
0.01 0.01 0.01 0.02 0.02 0.02 0.02 0.01 0.01 0.02 0.03 0.04 0.03 0.04 0.06 0.08 0.11 0.06 0.04 0.02 0.01 0.01 0.02 0.02 0.02 0.02 0.03 0.02 0.03 0.03 0.03 0.03 0.03 0.03 0.04 0.04 0.03 0.03 0.02 0.02 0.04 0.03 0.03 0.05
0.01 0.01 0.01 0.02 0.02 0.02 0.01 0.01 0.01 0.02 0.03 0.03 0.04 0.05 0.05 0.06 0.05 0.03 0.04 0.02 0.01 0.01 0.02 0.03 0.03 0.04 0.05 0.05 0.04 0.03 0.03 0.03 0.04 0.04 0.05 0.04 0.04 0.03 0.03 0.03 0.03 0.03 0.03 0.05
0.01 0.01 0.01 0.01 0.02 0.01 0.01 0.01 0.01 0.02 0.03 0.04 0.04 0.06 0.04 0.03 0.03 0.03 0.02 0.02 0.02 0.03 0.04 0.05 0.05 0.06 0.06 0.05 0.04 0.03 0.03 0.03 0.04 0.04 0.04 0.04 0.04 0.04 0.05 0.05 0.04 0.03 0.02 0.02
0.01 0.01 0.00 0.00 0.01 0.01 0.01 0.01 0.02 0.02 0.02 0.04 0.04 0.04 0.03 0.03 0.05 0.03 0.02 0.03 0.06 0.07 0.06 0.05 0.04 0.05 0.05 0.03 0.02 0.03 0.02 0.02 0.03 0.04 0.04 0.04 0.06 0.08 0.08 0.07 0.06 0.04 0.02 0.01
0.00 0.00 0.00 0.00 0.01 0.01 0.01 0.01 0.02 0.02 0.02 0.03 0.03 0.05 0.04 0.04 0.05 0.04 0.02 0.02 0.03 0.03 0.03 0.03 0.02 0.02 0.02 0.02 0.02 0.03 0.04 0.04 0.04 0.05 0.05 0.05 0.07 0.08 0.08 0.07 0.05 0.04 0.03 0.02
0.01 0.00 0.00 0.00 0.01 0.01 0.01 0.02 0.02 0.02 0.03 0.02 0.02 0.03 0.04 0.04 0.03 0.02 0.02 0.03 0.03 0.02 0.02 0.01 0.01 0.01 0.01 0.02 0.03 0.06 0.08 0.08 0.07 0.05 0.04 0.02 0.02 0.02 0.02 0.02 0.02 0.03 0.03 0.03
0.00 0.00 0.01 0.00 0.01 0.01 0.01 0.01 0.01 0.02 0.02 0.02 0.02 0.02 0.02 0.02 0.02 0.02 0.03 0.04 0.03 0.03 0.02 0.02 0.02 0.01 0.01 0.01 0.02 0.05 0.10 0.11 0.08 0.05 0.02 0.02 0.02 0.02 0.02 0.02 0.01 0.02 0.04 0.05
0.00 0.00 0.01 0.01 0.01 0.01 0.01 0.01 0.01 0.01 0.01 0.01 0.01 0.02 0.01 0.01 0.01 0.01 0.02 0.03 0.03 0.04 0.02 0.02 0.03 0.05 0.03 0.02 0.02 0.05 0.11 0.12 0.07 0.06 0.05 0.03 0.03 0.02 0.03 0.03 0.04 0.05 0.06 0.06
0.00 0.00 0.00 0.01 0.01 0.01 0.01 0.01 0.01 0.01 0.01 0.01 0.01 0.02 0.02 0.02 0.02 0.02 0.03 0.02 0.03 0.03 0.02 0.02 0.02 0.07 0.06 0.04 0.02 0.02 0.06 0.06 0.03 0.04 0.05 0.03 0.03 0.03 0.05 0.05 0.07 0.07 0.06 0.04
0.00 0.00 0.01 0.01 0.01 0.01 0.01 0.01 0.01 0.01 0.00 0.01 0.01 0.01 0.02 0.02 0.02 0.04 0.05 0.03 0.03 0.02 0.02 0.03 0.03 0.06 0.05 0.03 0.02 0.03 0.04 0.06 0.07 0.06 0.05 0.04 0.04 0.05 0.07 0.08 0.08 0.08 0.06 0.04
0.00 0.00 0.01 0.01 0.01 0.01 0.01 0.01 0.01 0.02 0.01 0.01 0.01 0.01 0.01 0.01 0.02 0.04 0.06 0.06 0.04 0.02 0.02 0.03 0.03 0.05 0.07 0.05 0.03 0.03 0.03 0.04 0.06 0.09 0.07 0.05 0.06 0.07 0.09 0.09 0.06 0.05 0.04 0.04
0.00 0.00 0.01 0.01 0.01 0.01 0.01 0.01 0.03 0.03 0.01 0.01 0.01 0.01 0.01 0.01 0.01 0.03 0.06 0.06 0.06 0.05 0.03 0.03 0.02 0.02 0.03 0.03 0.03 0.03 0.03 0.03 0.04 0.06 0.06 0.08 0.10 0.07 0.05 0.05 0.03 0.03 0.03 0.03
0.01 0.01 0.01 0.01 0.01 0.02 0.02 0.02 0.02 0.01 0.01 0.02 0.02 0.02 0.01 0.01 0.01 0.04 0.11 0.10 0.05 0.03 0.02 0.02 0.01 0.01 0.02 0.01 0.02 0.02 0.02 0.02 0.03 0.04 0.05 0.06 0.06 0.05 0.04 0.03 0.03 0.03 0.03 0.03
0.00 0.01 0.01 0.01 0.01 0.03 0.02 0.01 0.01 0.01 0.01 0.02 0.03 0.03 0.01 0.01 0.02 0.04 0.13 0.15 0.06 0.02 0.01 0.01 0.01 0.01 0.01 0.01 0.01 0.01 0.02 0.02 0.03 0.04 0.04 0.03 0.04 0.04 0.03 0.02 0.03 0.03 0.03 0.03
0.01 0.01 0.02 0.01 0.02 0.03 0.02 0.02 0.02 0.02 0.02 0.01 0.02 0.02 0.02 0.03 0.05 0.06 0.09 0.08 0.04 0.02 0.02 0.01 0.01 0.01 0.01 0.01 0.01 0.01 0.02 0.03 0.03 0.03 0.03 0.04 0.05 0.05 0.03 0.03 0.03 0.03 0.03 0.04
0.01 0.01 0.01 0.01 0.02 0.02 0.02 0.02 0.02 0.01 0.01 0.01 0.01 0.01 0.01 0.02 0.03 0.05 0.09 0.06 0.03 0.02 0.02 0.02 0.02 0.01 0.01 0.01 0.01 0.01 0.01 0.02 0.02 0.02 0.02 0.04 0.08 0.07 0.04 0.04 0.03 0.03 0.03 0.03
0.01 0.01 0.01 0.02 0.05 0.03 0.01 0.01 0.01 0.01 0.01 0.00 0.00 0.00 0.00 0.00 0.01 0.04 0.11 0.09 0.08 0.07 0.04 0.03 0.03 0.02 0.02 0.01 0.01 0.01 0.01 0.02 0.02 0.02 0.03 0.06 0.09 0.06 0.02 0.03 0.03 0.02 0.02 0.02
0.01 0.01 0.02 0.02 0.03 0.02 0.02 0.01 0.01 0.01 0.01 0.01 0.01 0.01 0.01 0.01 0.02 0.06 0.15 0.12 0.09 0.08 0.08 0.05 0.03 0.02 0.02 0.01 0.01 0.01 0.01 0.01 0.02 0.02 0.03 0.03 0.03 0.02 0.02 0.03 0.03 0.03 0.03 0.03
0.02 0.03 0.06 0.04 0.04 0.03 0.02 0.02 0.02 0.02 0.01 0.01 0.01 0.01 0.01 0.02 0.03 0.05 0.14 0.11 0.09 0.06 0.07 0.09 0.07 0.04 0.03 0.03 0.01 0.01 0.01 0.01 0.02 0.01 0.01 0.02 0.02 0.02 0.02 0.02 0.02 0.02 0.02 0.02
0.01 0.05 0.08 0.06 0.05 0.03 0.02 0.02 0.02 0.01 0.01 0.01 0.01 0.01 0.01 0.03 0.08 0.08 0.10 0.06 0.04 0.03 0.04 0.06 0.07 0.07 0.07 0.06 0.05 0.04 0.03 0.02 0.02 0.02 0.01 0.02 0.02 0.02 0.02 0.02 0.02 0.02 0.02 0.02
0.06 0.04 0.03 0.03 0.03 0.02 0.03 0.02 0.05 0.05 0.02 0.01 0.01 0.01 0.02 0.04 0.08 0.11 0.10 0.07 0.06 0.06 0.05 0.06 0.08 0.12 0.14 0.13 0.12 0.06 0.04 0.03 0.02 0.02 0.02 0.01 0.02 0.02 0.02 0.02 0.02 0.03 0.04 0.04
MSLP
1007.55 1008.46 1009.29 1010.04 1010.73 1011.41 1012.08 1012.76 1013.39 1013.94 1014.32 1014.49 1014.42 1014.12 1013.62 1013.01 1012.37 1011.76 1011.24 1010.81 1010.45 1010.10 1009.71 1009.23 1008.63 1007.95 1007.22 1006.52 1005.91 1005.45 1005.18 1005.08 1005.10 1005.19 1005.27 1005.29 1005.22 1005.04 1004.79 1004.50 1004.21 1003.97 1003.77 1003.62
1008.21 1008.90 1009.51 1010.08 1010.68 1011.35 1012.12 1012.97 1013.85 1014.66 1015.29 1015.67 1015.74 1015.50 1015.00 1014.33 1013.60 1012.91 1012.32 1011.84 1011.47 1011.13 1010.76 1010.30 1009.71 1009.00 1008.21 1007.42 1006.71 1006.15 1005.79 1005.62 1005.59 1005.66 1005.74 1005.76 1005.69 1005.51 1005.24 1004.94 1004.64 1004.39 1004.21 1004.10
1008.66 1009.06 1009.39 1009.73 1010.18 1010.80 1011.64 1012.66 1013.78 1014.86 1015.77 1016.39 1016.65 1016.53 1016.08 1015.41 1014.64 1013.89 1013.24 1012.74 1012.37 1012.06 1011.74 1011.32 1010.77 1010.07 1009.28 1008.45 1007.67 1007.03 1006.59 1006.35 1006.26 1006.29 1006.34 1006.34 1006.26 1006.06 1005.78 1005.46 1005.15 1004.90 1004.73 1004.66
1008.92 1009.01 1009.04 1009.14 1009.42 1009.99 1010.88 1012.05 1013.39 1014.74 1015.93 1016.80 1017.26 1017.29 1016.92 1016.26 1015.47 1014.69 1014.00 1013.48 1013.11 1012.84 1012.57 1012.23 1011.74 1011.11 1010.34 1009.52 1008.72 1008.04 1007.53 1007.22 1007.08 1007.05 1007.06 1007.03 1006.93 1006.72 1006.43 1006.09 1005.77 1005.51 1005.36 1005.30
1009.09 1008.91 1008.67 1008.54 1008.68 1009.19 1010.11 1011.40 1012.93 1014.52 1015.95 1017.05 1017.70 1017.86 1017.57 1016.94 1016.14 1015.32 1014.60 1014.06 1013.69 1013.45 1013.24 1012.98 1012.59 1012.04 1011.34 1010.56 1009.78 1009.08 1008.53 1008.17 1007.96 1007.88 1007.84 1007.79 1007.67 1007.45 1007.15 1006.81 1006.48 1006.22 1006.05 1005.99
1009.28 1008.88 1008.44 1008.14 1008.17 1008.63 1009.57 1010.96 1012.62 1014.37 1015.98 1017.25 1018.04 1018.31 1018.08 1017.47 1016.66 1015.80 1015.05 1014.48 1014.11 1013.89 1013.74 1013.57 1013.28 1012.84 1012.24 1011.53 1010.79 1010.09 1009.52 1009.11 1008.85 1008.71 1008.63 1008.55 1008.41 1008.19 1007.89 1007.56 1007.24 1006.97 1006.80 1006.72
1009.54 1009.00 1008.45 1008.06 1008.02 1008.45 1009.40 1010.82 1012.55 1014.38 1016.08 1017.44 1018.31 1018.63 1018.44 1017.84 1017.02 1016.14 1015.36 1014.76 1014.39 1014.20 1014.11 1014.02 1013.84 1013.50 1013.01 1012.38 1011.70 1011.03 1010.45 1009.99 1009.68 1009.49 1009.36 1009.25 1009.10 1008.88 1008.61 1008.30 1007.99 1007.73 1007.55 1007.45
1009.85 1009.28 1008.69 1008.28 1008.22 1008.64 1009.57 1010.97 1012.69 1014.51 1016.20 1017.56 1018.45 1018.79 1018.61 1018.03 1017.21 1016.33 1015.54 1014.95 1014.58 1014.42 1014.39 1014.38 1014.29 1014.06 1013.67 1013.14 1012.52 1011.87 1011.28 1010.80 1010.44 1010.18 1010.01 1009.86 1009.70 1009.51 1009.26 1008.98 1008.71 1008.46 1008.27 1008.16
1010.13 1009.61 1009.08 1008.71 1008.67 1009.07 1009.96 1011.28 1012.90 1014.62 1016.23 1017.52 1018.37 1018.70 1018.54 1017.99 1017.21 1016.37 1015.62 1015.06 1014.73 1014.61 1014.63 1014.69 1014.69 1014.56 1014.27 1013.82 1013.25 1012.64 1012.05 1011.53 1011.12 1010.81 1010.58 1010.41 1010.24 1010.06 1009.84 1009.61 1009.37 1009.15 1008.96 1008.83
1010.26 1009.87 1009.46 1009.18 1009.18 1009.57 1010.37 1011.57 1013.03 1014.58 1016.03 1017.21 1017.99 1018.31 1018.19 1017.71 1017.03 1016.29 1015.63 1015.15 1014.88 1014.82 1014.89 1015.01 1015.08 1015.03 1014.82 1014.45 1013.95 1013.37 1012.78 1012.24 1011.78 1011.41 1011.13 1010.92 1010.74 1010.56 1010.38 1010.18 1009.98 1009.79 1009.62 1009.48
1010.15 1009.93 1009.68 1009.52 1009.58 1009.94 1010.64 1011.67 1012.92 1014.26 1015.52 1016.56 1017.27 1017.60 1017.56 1017.21 1016.69 1016.11 1015.60 1015.24 1015.07 1015.07 1015.20 1015.37 1015.50 1015.51 1015.36 1015.06 1014.61 1014.07 1013.50 1012.94 1012.45 1012.04 1011.71 1011.45 1011.25 1011.08 1010.91 1010.75 1010.58 1010.41 1010.26 1010.11
1009.75 1009.74 1009.67 1009.65 1009.76 1010.09 1010.68 1011.51 1012.53 1013.63 1014.70 1015.61 1016.27 1016.64 1016.72 1016.56 1016.25 1015.89 1015.57 1015.37 1015.31 1015.39 1015.56 1015.76 1015.92 1015.97 1015.88 1015.64 1015.25 1014.76 1014.22 1013.67 1013.16 1012.71 1012.35 1012.05 1011.82 1011.63 1011.47 1011.32 1011.18 1011.03 1010.88 1010.73
1009.15 1009.34 1009.46 1009.57 1009.73 1010.02 1010.48 1011.12 1011.91 1012.78 1013.66 1014.45 1015.10 1015.55 1015.79 1015.86 1015.79 1015.68 1015.58 1015.54 1015.60 1015.74 1015.94 1016.16 1016.32 1016.40 1016.35 1016.16 1015.84 1015.41 1014.92 1014.40 1013.90 1013.44 1013.05 1012.72 1012.46 1012.24 1012.07 1011.93 1011.79 1011.65 1011.50 1011.34
1008.48 1008.87 1009.15 1009.37 1009.58 1009.82 1010.15 1010.59 1011.16 1011.83 1012.54 1013.25 1013.90 1014.45 1014.88 1015.18 1015.39 1015.53 1015.64 1015.76 1015.92 1016.11 1016.31 1016.51 1016.67 1016.75 1016.72 1016.59 1016.34 1015.99 1015.57 1015.11 1014.64 1014.20 1013.79 1013.43 1013.14 1012.90 1012.71 1012.55 1012.40 1012.26 1012.11 1011.95
1007.92 1008.46 1008.88 1009.19 1009.41 1009.59 1009.79 1010.06 1010.43 1010.91 1011.49 1012.13 1012.81 1013.47 1014.08 1014.62 1015.07 1015.44 1015.75 1016.00 1016.23 1016.44 1016.62 1016.79 1016.91 1016.98 1016.97 1016.89 1016.71 1016.46 1016.13 1015.75 1015.34 1014.92 1014.52 1014.15 1013.83 1013.56 1013.34 1013.16 1013.01 1012.86 1012.71 1012.54
1007.62 1008.26 1008.77 1009.11 1009.32 1009.43 1009.51 1009.62 1009.81 1010.14 1010.60 1011.20 1011.91 1012.67 1013.44 1014.18 1014.85 1015.41 1015.87 1016.23 1016.50 1016.70 1016.85 1016.95 1017.03 1017.08 1017.08 1017.04 1016.95 1016.79 1016.56 1016.27 1015.93 1015.56 1015.18 1014.81 1014.48 1014.18 1013.94 1013.74 1013.57 1013.42 1013.27 1013.11
1007.64 1008.33 1008.85 1009.19 1009.35 1009.38 1009.33 1009.29 1009.34 1009.53 1009.91 1010.47 1011.20 1012.05 1012.96 1013.86 1014.69 1015.41 1015.98 1016.40 1016.69 1016.87 1016.97 1017.01 1017.04 1017.06 1017.07 1017.07 1017.05 1016.98 1016.85 1016.66 1016.40 1016.08 1015.74 1015.38 1015.04 1014.73 1014.47 1014.26 1014.09 1013.94 1013.80 1013.65
1007.95 1008.60 1009.08 1009.35 1009.44 1009.36 1009.20 1009.04 1008.97 1009.06 1009.37 1009.91 1010.66 1011.57 1012.58 1013.60 1014.55 1015.37 1016.03 1016.50 1016.79 1016.95 1017.00 1016.99 1016.98 1016.97 1016.99 1017.03 1017.06 1017.07 1017.03 1016.92 1016.73 1016.48 1016.17 1015.83 1015.50 1015.19 1014.93 1014.72 1014.55 1014.42 1014.30 1014.17
1008.39 1008.93 1009.30 1009.47 1009.45 1009.27 1009.01 1008.75 1008.59 1008.62 1008.89 1009.41 1010.18 1011.15 1012.23 1013.33 1014.37 1015.28 1015.99 1016.50 1016.80 1016.95 1016.97 1016.94 1016.89 1016.88 1016.90 1016.96 1017.04 1017.11 1017.13 1017.09 1016.96 1016.76 1016.49 1016.18 1015.86 1015.57 1015.32 1015.12 1014.97 1014.86 1014.77 1014.67
1008.76 1009.13 1009.35 1009.39 1009.25 1008.97 1008.63 1008.32 1008.12 1008.12 1008.38 1008.92 1009.71 1010.72 1011.85 1013.02 1014.13 1015.09 1015.86 1016.40 1016.74 1016.89 1016.92 1016.88 1016.84 1016.82 1016.85 1016.93 1017.03 1017.14 1017.21 1017.21 1017.13 1016.96 1016.73 1016.45 1016.16 1015.88 1015.65 1015.48 1015.36 1015.28 1015.22 1015.15
1008.87 1009.04 1009.08 1008.98 1008.73 1008.39 1008.02 1007.69 1007.51 1007.53 1007.82 1008.39 1009.22 1010.27 1011.44 1012.66 1013.81 1014.82 1015.64 1016.24 1016.61 1016.81 1016.87 1016.86 1016.83 1016.83 1016.87 1016.96 1017.08 1017.20 1017.28 1017.31 1017.25 1017.11 1016.91 1016.66 1016.40 1016.15 1015.95 1015.81 1015.72 1015.67 1015.63 1015.59
1008.61 1008.57 1008.45 1008.22 1007.90 1007.54 1007.18 1006.90 1006.78 1006.87 1007.23 1007.86 1008.74 1009.82 1011.03 1012.27 1013.46 1014.51 1015.37 1016.02 1016.46 1016.71 1016.82 1016.86 1016.87 1016.89 1016.95 1017.05 1017.17 1017.29 1017.37 1017.40 1017.35 1017.24 1017.06 1016.84 1016.61 1016.40 1016.23 1016.11 1016.05 1016.02 1016.00 1015.98
1007.96 1007.75 1007.49 1007.18 1006.84 1006.51 1006.22 1006.05 1006.04 1006.24 1006.70 1007.40 1008.33 1009.45 1010.68 1011.93 1013.13 1014.20 1015.09 1015.79 1016.28 1016.60 1016.78 1016.87 1016.93 1016.99 1017.06 1017.16 1017.27 1017.38 1017.45 1017.47 1017.43 1017.32 1017.17 1016.98 1016.78 1016.60 1016.47 1016.38 1016.33 1016.31 1016.30 1016.28
1007.03 1006.69 1006.35 1006.02 1005.73 1005.48 1005.32 1005.29 1005.43 1005.78 1006.34 1007.13 1008.10 1009.23 1010.45 1011.69 1012.86 1013.93 1014.83 1015.55 1016.09 1016.46 1016.71 1016.86 1016.97 1017.06 1017.15 1017.25 1017.35 1017.44 1017.50 1017.51 1017.46 1017.37 1017.23 1017.07 1016.91 1016.77 1016.66 1016.59 1016.55 1016.53 1016.51 1016.47
1005.98 1005.58 1005.23 1004.95 1004.74 1004.63 1004.64 1004.79 1005.10 1005.59 1006.27 1007.12 1008.12 1009.23 1010.41 1011.59 1012.71 1013.73 1014.61 1015.33 1015.89 1016.30 1016.60 1016.80 1016.95 1017.07 1017.17 1017.27 1017.36 1017.43 1017.47 1017.47 1017.43 1017.35 1017.23 1017.11 1016.98 1016.87 1016.78 1016.72 1016.67 1016.64 1016.60 1016.54
1005.02 1004.63 1004.33 1004.15 1004.07 1004.13 1004.32 1004.65 1005.13 1005.75 1006.51 1007.40 1008.40 1009.46 1010.56 1011.65 1012.68 1013.62 1014.44 1015.13 1015.68 1016.11 1016.43 1016.67 1016.85 1016.99 1017.11 1017.21 1017.29 1017.34 1017.37 1017.36 1017.32 1017.26 1017.17 1017.07 1016.97 1016.89 1016.82 1016.76 1016.71 1016.66 1016.59 1016.49
Thickness
5839 5820 5807 5814 5822 5820 5814 5805 5801 5812 5825 5813 5803 5800 5806 5811 5808 5803 5800 5798 5796 5796 5800 5801 5800 5798 5794 5790 5787 5784 5781 5779 5776 5773 5769 5765 5763 5762 5762 5762 5761 5760 5759 5757
5816 5811 5831 5839 5838 5830 5819 5807 5805 5814 5826 5813 5800 5797 5806 5809 5807 5806 5802 5799 5797 5795 5795 5796 5796 5796 5793 5789 5786 5783 5781 5778 5776 5773 5770 5767 5763 5761 5760 5759 5759 5758 5757 5755
5808 5825 5844 5839 5831 5824 5818 5811 5809 5805 5811 5810 5798 5786 5795 5805 5810 5809 5808 5805 5800 5798 5794 5794 5794 5793 5791 5788 5785 5784 5780 5778 5776 5773 5769 5765 5761 5758 5756 5755 5754 5755 5754 5753
5818 5837 5840 5833 5829 5827 5810 5831 5828 5816 5795 5780 5790 5761 5782 5794 5798 5802 5804 5803 5800 5799 5796 5794 5793 5791 5789 5787 5786 5783 5779 5777 5774 5771 5767 5762 5756 5752 5752 5752 5752 5752 5751 5750
5815 5832 5832 5826 5833 5836 5826 5840 5830 5817 5795 5779 5782 5766 5773 5789 5788 5796 5803 5805 5803 5801 5798 5795 5794 5793 5791 5788 5785 5782 5778 5775 5773 5770 5766 5761 5756 5754 5752 5751 5749 5748 5747 5746
5827 5843 5843 5840 5848 5847 5841 5828 5816 5801 5783 5760 5772 5765 5765 5782 5793 5799 5804 5806 5805 5803 5800 5797 5795 5793 5789 5787 5783 5780 5776 5772 5770 5767 5764 5759 5755 5752 5749 5747 5745 5744 5743 5743
5812 5829 5845 5852 5835 5838 5830 5797 5770 5763 5751 5753 5773 5768 5772 5800 5811 5810 5807 5806 5806 5804 5800 5796 5792 5789 5786 5783 5780 5777 5773 5769 5767 5764 5760 5758 5755 5752 5748 5745 5743 5741 5739 5738
5788 5795 5830 5844 5834 5822 5822 5802 5767 5751 5744 5751 5767 5763 5784 5811 5817 5819 5814 5810 5806 5803 5800 5797 5794 5791 5787 5784 5779 5775 5770 5766 5764 5761 5758 5756 5753 5750 5746 5744 5741 5739 5737 5736
5790 5796 5836 5846 5849 5837 5816 5804 5802 5772 5759 5746 5753 5770 5790 5808 5808 5809 5807 5805 5801 5801 5799 5796 5793 5790 5788 5784 5778 5774 5769 5765 5762 5760 5756 5753 5750 5747 5744 5742 5739 5737 5735 5734
5809 5797 5822 5839 5843 5838 5830 5817 5790 5769 5745 5736 5749 5759 5767 5787 5794 5799 5800 5799 5799 5799 5797 5795 5792 5789 5786 5783 5778 5773 5768 5764 5760 5757 5755 5752 5748 5746 5742 5739 5736 5734 5732 5730
5817 5795 5804 5817 5814 5811 5814 5807 5789 5768 5760 5740 5733 5753 5795 5794 5798 5797 5798 5800 5798 5797 5795 5793 5790 5788 5784 5781 5776 5771 5766 5762 5758 5755 5753 5749 5746 5744 5740 5736 5733 5731 5729 5727
5816 5793 5782 5800 5823 5832 5821 5810 5792 5769 5760 5753 5743 5758 5810 5806 5805 5801 5798 5799 5799 5797 5794 5792 5789 5785 5780 5776 5773 5768 5764 5760 5757 5753 5750 5747 5743 5740 5736 5733 5731 5729 5726 5724
5815 5788 5767 5773 5790 5810 5812 5812 5801 5784 5766 5752 5743 5760 5803 5802 5801 5802 5799 5797 5796 5794 5792 5788 5784 5780 5776 5773 5770 5765 5762 5759 5755 5751 5747 5742 5739 5735 5732 5730 5728 5726 5723 5720
5822 5787 5773 5764 5773 5793 5798 5804 5802 5785 5761 5755 5759 5768 5785 5790 5792 5795 5797 5794 5792 5790 5788 5784 5779 5777 5774 5771 5768 5763 5759 5757 5753 5748 5743 5738 5736 5733 5730 5727 5725 5722 5719 5716
5810 5784 5788 5791 5799 5801 5798 5799 5800 5790 5780 5767 5770 5773 5782 5790 5793 5795 5794 5791 5788 5784 5782 5779 5776 5773 5771 5768 5764 5760 5757 5753 5750 5744 5740 5736 5734 5731 5727 5723 5721 5719 5716 5713
5796 5784 5783 5782 5794 5795 5792 5797 5797 5793 5789 5781 5777 5776 5794 5797 5795 5790 5789 5787 5781 5780 5779 5777 5774 5771 5767 5765 5761 5758 5755 5752 5748 5742 5737 5734 5730 5727 5723 5719 5716 5714 5711 5708
5781 5775 5765 5760 5777 5780 5768 5787 5790 5786 5788 5784 5772 5780 5793 5789 5788 5786 5786 5784 5779 5776 5774 5773 5771 5769 5766 5764 5761 5756 5752 5749 5744 5739 5735 5730 5726 5722 5718 5716 5712 5709 5707 5704
5775 5766 5752 5749 5758 5743 5769 5798 5798 5788 5785 5788 5786 5787 5790 5788 5787 5788 5787 5782 5777 5775 5773 5772 5770 5768 5765 5763 5759 5755 5750 5745 5740 5735 5730 5726 5723 5719 5715 5712 5708 5705 5703 5699
5782 5766 5748 5736 5735 5745 5772 5789 5790 5778 5771 5784 5782 5783 5785 5786 5780 5776 5783 5784 5779 5777 5774 5772 5770 5766 5763 5760 5756 5750 5744 5740 5735 5731 5726 5723 5720 5716 5711 5707 5704 5701 5698 5695
5773 5765 5746 5735 5732 5730 5758 5787 5797 5782 5756 5778 5780 5777 5778 5777 5756 5761 5778 5780 5778 5776 5773 5769 5766 5763 5758 5755 5752 5745 5739 5735 5730 5728 5724 5720 5716 5712 5708 5704 5701 5698 5695 5691
5747 5744 5737 5730 5728 5740 5768 5786 5787 5751 5750 5774 5777 5776 5774 5768 5766 5771 5776 5776 5774 5771 5768 5765 5761 5756 5753 5751 5746 5739 5734 5730 5728 5725 5721 5717 5713 5709 5705 5701 5698 5694 5691 5686
5732 5728 5726 5722 5719 5729 5770 5773 5762 5758 5770 5773 5773 5774 5771 5769 5770 5770 5769 5767 5766 5763 5761 5758 5753 5749 5747 5745 5740 5734 5730 5728 5725 5721 5717 5713 5709 5706 5702 5696 5692 5689 5684 5680
5729 5731 5728 5727 5730 5750 5763 5765 5769 5770 5765 5766 5767 5768 5768 5764 5762 5762 5760 5758 5757 5754 5752 5750 5747 5743 5740 5739 5736 5730 5727 5724 5720 5715 5711 5707 5704 5701 5697 5692 5687 5682 5678 5674
5726 5734 5728 5727 5736 5746 5754 5760 5764 5767 5765 5765 5765 5765 5762 5757 5755 5752 5749 5747 5745 5744 5742 5740 5738 5734 5732 5732 5730 5726 5723 5720 5715 5709 5705 5702 5698 5695 5691 5687 5682 5677 5673 5668
5716 5721 5717 5717 5727 5736 5744 5750 5754 5758 5760 5759 5758 5758 5756 5752 5747 5744 5740 5737 5736 5735 5733 5732 5730 5726 5724 5723 5721 5719 5715 5712 5707 5703 5699 5696 5693 5689 5684 5680 5676 5673 5670 5666
5710 5709 5706 5707 5720 5723 5729 5741 5747 5748 5748 5748 5746 5744 5745 5744 5739 5736 5733 5731 5729 5727 5726 5723 5720 5717 5714 5714 5713 5711 5708 5705 5699 5694 5692 5689 5685 5682 5678 5673 5670 5668 5665 5663